Time,TemperatureF,DewpointF,PressureIn,WindDirection,WindDirectionDegrees,WindSpeedMPH,WindSpeedGustMPH,Humidity,HourlyPrecipIn,Conditions,Clouds,dailyrainin,SolarRadiationWatts/m^2,SoftwareType,DateUTC
2013-02-05 00:00:00,26.0,26.0,29.08,ESE,112,0.0,0.0,100,0.00,,---,0.00,0.00,VWS V14.01,2013-02-05 05:00:00,
2013-02-05 00:05:00,26.0,26.0,29.08,NW,315,0.0,0.0,100,0.00,,---,0.00,0.00,VWS V14.01,2013-02-05 05:05:00,
2013-02-05 00:10:00,26.0,26.0,29.09,NNW,337,0.0,0.0,100,0.00,,---,0.00,0.00,VWS V14.01,2013-02-05 05:10:00,
2013-02-05 00:15:00,26.0,26.0,29.09,NE,45,0.0,0.0,100,0.00,,---,0.00,0.00,VWS V14.01,2013-02-05 05:15:00,
2013-02-05 00:20:00,26.0,26.0,29.09,SSW,202,0.0,0.0,100,0.00,,---,0.00,0.00,VWS V14.01,2013-02-05 05:20:00,
2013-02-05 00:25:00,26.0,26.0,29.09,North,360,0.0,1.0,100,0.00,,---,0.00,0.00,VWS V14.01,2013-02-05 05:25:00,
2013-02-05 00:30:00,26.0,26.0,29.09,WNW,292,0.0,0.0,100,0.00,,---,0.00,0.00,VWS V14.01,2013-02-05 05:30:00,
2013-02-05 00:36:00,26.0,26.0,29.09,NW,315,0.0,0.0,100,0.00,,---,0.00,0.00,VWS V14.01,2013-02-05 05:36:00,
2013-02-05 00:41:00,26.0,26.0,29.09,ENE,67,0.0,1.0,100,0.00,,---,0.00,0.00,VWS V14.01,2013-02-05 05:41:00,
2013-02-05 00:46:00,26.0,26.0,29.09,NNE,22,0.0,1.0,100,0.00,,---,0.00,0.00,VWS V14.01,2013-02-05 05:46:00,
2013-02-05 00:51:00,26.0,26.0,29.10,NW,315,1.0,3.0,100,0.00,,---,0.00,0.00,VWS V14.01,2013-02-05 05:51:00,
2013-02-05 00:56:00,26.0,26.0,29.10,NNW,337,1.0,1.0,100,0.00,,---,0.00,0.00,VWS V14.01,2013-02-05 05:56:00,
2013-02-05 01:01:00,26.0,26.0,29.10,NNW,337,0.0,1.0,100,0.00,,---,0.00,0.00,VWS V14.01,2013-02-05 06:01:00,
2013-02-05 01:06:00,26.0,26.0,29.10,NNW,337,0.0,1.0,100,0.00,,---,0.00,0.00,VWS V14.01,2013-02-05 06:06:00,
2013-02-05 01:11:00,26.0,26.0,29.10,WNW,292,0.0,0.0,100,0.00,,---,0.00,0.00,VWS V14.01,2013-02-05 06:11:00,
2013-02-05 01:16:00,26.0,26.0,29.10,NW,315,0.0,1.0,100,0.00,,---,0.00,0.00,VWS V14.01,2013-02-05 06:16:00,
2013-02-05 01:21:00,26.0,26.0,29.11,NW,315,2.0,2.0,100,0.00,,---,0.00,0.00,VWS V14.01,2013-02-05 06:21:00,
2013-02-05 01:26:00,26.0,26.0,29.11,SE,135,0.0,1.0,100,0.00,,---,0.00,0.00,VWS V14.01,2013-02-05 06:26:00,
2013-02-05 01:31:00,25.0,25.0,29.11,NW,315,0.0,3.0,100,0.00,,---,0.00,0.00,VWS V14.01,2013-02-05 06:31:00,
2013-02-05 01:36:00,25.0,25.0,29.11,NNW,337,0.0,2.0,100,0.00,,---,0.00,0.00,VWS V14.01,2013-02-05 06:36:00,
2013-02-05 01:41:00,25.0,25.0,29.11,ESE,112,1.0,2.0,100,0.00,,---,0.00,0.00,VWS V14.01,2013-02-05 06:41:00,
2013-02-05 01:46:00,25.0,25.0,29.11,NNW,337,0.0,2.0,100,0.00,,---,0.00,0.00,VWS V14.01,2013-02-05 06:46:00,
2013-02-05 01:51:00,25.0,25.0,29.11,North,360,0.0,2.0,100,0.00,,---,0.00,0.00,VWS V14.01,2013-02-05 06:51:00,
2013-02-05 01:56:00,25.0,25.0,29.11,WNW,292,0.0,0.0,100,0.00,,---,0.00,0.00,VWS V14.01,2013-02-05 06:56:00,
2013-02-05 02:01:00,25.0,25.0,29.11,NNE,22,0.0,1.0,100,0.00,,---,0.00,0.00,VWS V14.01,2013-02-05 07:01:00,
2013-02-05 02:06:00,25.0,25.0,29.11,NW,315,1.0,1.0,100,0.00,,---,0.00,0.00,VWS V14.01,2013-02-05 07:06:00,
2013-02-05 02:18:00,25.0,25.0,29.10,NW,315,0.0,0.0,100,0.00,,---,0.00,0.00,VWS V14.01,2013-02-05 07:18:00,
2013-02-05 02:23:00,25.0,25.0,29.10,SE,135,0.0,1.0,100,0.00,,---,0.00,0.00,VWS V14.01,2013-02-05 07:23:00,
2013-02-05 02:32:00,24.0,24.0,29.10,NW,315,0.0,3.0,100,0.00,,---,0.00,0.00,VWS V14.01,2013-02-05 07:32:00,
2013-02-05 02:37:00,24.0,24.0,29.10,NNW,337,0.0,0.0,100,0.00,,---,0.00,0.00,VWS V14.01,2013-02-05 07:37:00,
2013-02-05 02:42:00,24.0,24.0,29.11,NNW,337,1.0,3.0,100,0.00,,---,0.00,0.00,VWS V14.01,2013-02-05 07:42:00,
2013-02-05 02:47:00,24.0,24.0,29.11,NNE,22,0.0,0.0,100,0.00,,---,0.00,0.00,VWS V14.01,2013-02-05 07:47:00,
2013-02-05 02:52:00,24.0,24.0,29.11,NW,315,0.0,0.0,100,0.00,,---,0.00,0.00,VWS V14.01,2013-02-05 07:52:00,
2013-02-05 02:57:00,24.0,24.0,29.11,NNW,337,0.0,2.0,100,0.00,,---,0.00,0.00,VWS V14.01,2013-02-05 07:57:00,
2013-02-05 03:02:00,24.0,24.0,29.11,NW,315,0.0,0.0,100,0.00,,---,0.00,0.00,VWS V14.01,2013-02-05 08:02:00,
2013-02-05 03:07:00,24.0,24.0,29.11,NW,315,0.0,1.0,100,0.00,,---,0.00,0.00,VWS V14.01,2013-02-05 08:07:00,
2013-02-05 03:12:00,23.0,23.0,29.10,WNW,292,0.0,1.0,100,0.00,,---,0.00,0.00,VWS V14.01,2013-02-05 08:12:00,
2013-02-05 03:17:00,23.0,23.0,29.10,North,360,0.0,0.0,100,0.00,,---,0.00,0.00,VWS V14.01,2013-02-05 08:17:00,
2013-02-05 03:22:00,23.0,23.0,29.11,NNW,337,0.0,0.0,100,0.00,,---,0.00,0.00,VWS V14.01,2013-02-05 08:22:00,
2013-02-05 03:27:00,22.0,22.0,29.11,NNW,337,0.0,0.0,100,0.00,,---,0.00,0.00,VWS V14.01,2013-02-05 08:27:00,
2013-02-05 03:32:00,22.0,22.0,29.11,NNW,337,0.0,0.0,100,0.00,,---,0.00,0.00,VWS V14.01,2013-02-05 08:32:00,
2013-02-05 03:37:00,22.0,22.0,29.11,NNW,337,0.0,0.0,100,0.00,,---,0.00,0.00,VWS V14.01,2013-02-05 08:37:00,
2013-02-05 03:42:00,21.0,21.0,29.11,NNW,337,0.0,0.0,100,0.00,,---,0.00,0.00,VWS V14.01,2013-02-05 08:42:00,
2013-02-05 03:47:00,21.0,21.0,29.11,NNW,337,0.0,0.0,100,0.00,,---,0.00,0.00,VWS V14.01,2013-02-05 08:47:00,
2013-02-05 03:52:00,21.0,21.0,29.10,NNW,337,0.0,0.0,100,0.00,,---,0.00,0.00,VWS V14.01,2013-02-05 08:52:00,
2013-02-05 03:57:00,20.0,20.0,29.10,NNW,337,0.0,0.0,100,0.00,,---,0.00,0.00,VWS V14.01,2013-02-05 08:57:00,
2013-02-05 04:02:00,20.0,20.0,29.11,NNW,337,0.0,0.0,100,0.00,,---,0.00,0.00,VWS V14.01,2013-02-05 09:02:00,
2013-02-05 04:07:00,20.0,20.0,29.11,NNW,337,0.0,0.0,100,0.00,,---,0.00,0.00,VWS V14.01,2013-02-05 09:07:00,
2013-02-05 04:12:00,20.0,20.0,29.09,NNW,337,0.0,0.0,100,0.00,,---,0.00,0.00,VWS V14.01,2013-02-05 09:12:00,
2013-02-05 04:17:00,19.0,19.0,29.09,NNW,337,0.0,0.0,100,0.00,,---,0.00,0.00,VWS V14.01,2013-02-05 09:17:00,
2013-02-05 04:22:00,19.0,19.0,29.09,NNW,337,0.0,0.0,100,0.00,,---,0.00,0.00,VWS V14.01,2013-02-05 09:22:00,
2013-02-05 04:27:00,18.0,18.0,29.09,NNW,337,0.0,0.0,100,0.00,,---,0.00,0.00,VWS V14.01,2013-02-05 09:27:00,
2013-02-05 04:32:00,18.0,18.0,29.09,NNW,337,0.0,0.0,100,0.00,,---,0.00,0.00,VWS V14.01,2013-02-05 09:32:00,
2013-02-05 04:37:00,18.0,18.0,29.09,NNW,337,0.0,0.0,100,0.00,,---,0.00,0.00,VWS V14.01,2013-02-05 09:37:00,
2013-02-05 04:42:00,18.0,18.0,29.09,NNW,337,0.0,0.0,100,0.00,,---,0.00,0.00,VWS V14.01,2013-02-05 09:42:00,
2013-02-05 04:47:00,19.0,19.0,29.09,NNW,337,0.0,0.0,100,0.00,,---,0.00,0.00,VWS V14.01,2013-02-05 09:47:00,
2013-02-05 04:52:00,19.0,19.0,29.09,NNW,337,0.0,0.0,100,0.00,,---,0.00,0.00,VWS V14.01,2013-02-05 09:52:00,
2013-02-05 04:57:00,19.0,19.0,29.09,NNW,337,0.0,0.0,100,0.00,,---,0.00,0.00,VWS V14.01,2013-02-05 09:57:00,
2013-02-05 05:02:00,20.0,20.0,29.10,NNW,337,0.0,0.0,100,0.00,,---,0.00,0.00,VWS V14.01,2013-02-05 10:02:00,
2013-02-05 05:07:00,20.0,20.0,29.10,NNW,337,0.0,0.0,100,0.00,,---,0.00,0.00,VWS V14.01,2013-02-05 10:07:00,
2013-02-05 05:12:00,20.0,20.0,29.10,NNW,337,0.0,0.0,100,0.00,,---,0.00,0.00,VWS V14.01,2013-02-05 10:12:00,
2013-02-05 05:17:00,20.0,20.0,29.10,NNW,337,0.0,0.0,100,0.00,,---,0.00,0.00,VWS V14.01,2013-02-05 10:17:00,
2013-02-05 05:22:00,20.0,20.0,29.11,NNW,337,0.0,0.0,100,0.00,,---,0.00,0.00,VWS V14.01,2013-02-05 10:22:00,
2013-02-05 05:27:00,20.0,20.0,29.11,NNW,337,0.0,0.0,100,0.00,,---,0.00,0.00,VWS V14.01,2013-02-05 10:27:00,
2013-02-05 05:32:00,20.0,20.0,29.11,NNW,337,0.0,0.0,100,0.00,,---,0.00,0.00,VWS V14.01,2013-02-05 10:32:00,
2013-02-05 05:37:00,20.0,20.0,29.11,NNW,337,0.0,0.0,100,0.00,,---,0.00,0.00,VWS V14.01,2013-02-05 10:37:00,
2013-02-05 05:42:00,20.0,20.0,29.10,NNW,337,0.0,0.0,100,0.00,,---,0.00,0.00,VWS V14.01,2013-02-05 10:42:00,
2013-02-05 05:47:00,20.0,20.0,29.10,NNW,337,0.0,0.0,100,0.00,,---,0.00,0.00,VWS V14.01,2013-02-05 10:47:00,
2013-02-05 05:52:00,20.0,20.0,29.09,NNW,337,0.0,0.0,100,0.00,,---,0.00,0.00,VWS V14.01,2013-02-05 10:52:00,
2013-02-05 05:57:00,19.0,19.0,29.09,NNW,337,0.0,0.0,100,0.00,,---,0.00,0.00,VWS V14.01,2013-02-05 10:57:00,
2013-02-05 06:02:00,19.0,19.0,29.11,NNW,337,0.0,0.0,100,0.00,,---,0.00,0.00,VWS V14.01,2013-02-05 11:02:00,
2013-02-05 06:07:00,19.0,19.0,29.11,NNW,337,0.0,0.0,100,0.00,,---,0.00,0.00,VWS V14.01,2013-02-05 11:07:00,
2013-02-05 06:12:00,19.0,19.0,29.10,NNW,337,0.0,0.0,100,0.00,,---,0.00,0.00,VWS V14.01,2013-02-05 11:12:00,
2013-02-05 06:17:00,19.0,19.0,29.10,NNW,337,0.0,0.0,100,0.00,,---,0.00,0.00,VWS V14.01,2013-02-05 11:17:00,
2013-02-05 06:22:00,19.0,19.0,29.10,NNW,337,0.0,0.0,100,0.00,,---,0.00,0.00,VWS V14.01,2013-02-05 11:22:00,
2013-02-05 06:27:00,19.0,19.0,29.10,NNW,337,0.0,0.0,100,0.00,,---,0.00,0.00,VWS V14.01,2013-02-05 11:27:00,
2013-02-05 06:32:00,19.0,19.0,29.11,NNW,337,0.0,0.0,100,0.00,,---,0.00,0.00,VWS V14.01,2013-02-05 11:32:00,
2013-02-05 06:37:00,19.0,19.0,29.11,NNW,337,0.0,0.0,100,0.00,,---,0.00,0.00,VWS V14.01,2013-02-05 11:37:00,
2013-02-05 06:42:00,19.0,19.0,29.09,NNW,337,0.0,0.0,100,0.00,,---,0.00,0.00,VWS V14.01,2013-02-05 11:42:00,
2013-02-05 06:47:00,18.0,18.0,29.09,NNW,337,0.0,0.0,100,0.00,,---,0.00,0.00,VWS V14.01,2013-02-05 11:47:00,
2013-02-05 06:52:00,18.0,18.0,29.11,NNW,337,0.0,0.0,100,0.00,,---,0.00,0.00,VWS V14.01,2013-02-05 11:52:00,
2013-02-05 06:57:00,18.0,18.0,29.11,NNW,337,0.0,0.0,100,0.00,,---,0.00,0.00,VWS V14.01,2013-02-05 11:57:00,
2013-02-05 07:02:00,18.0,18.0,29.10,NNW,337,0.0,0.0,100,0.00,,---,0.00,0.00,VWS V14.01,2013-02-05 12:02:00,
2013-02-05 07:07:00,18.0,18.0,29.10,NNW,337,0.0,0.0,100,0.00,,---,0.00,0.00,VWS V14.01,2013-02-05 12:07:00,
2013-02-05 07:12:00,18.0,18.0,29.09,NNW,337,0.0,0.0,100,0.00,,---,0.00,0.00,VWS V14.01,2013-02-05 12:12:00,
2013-02-05 07:17:00,17.0,17.0,29.09,NNW,337,0.0,0.0,100,0.00,,---,0.00,0.00,VWS V14.01,2013-02-05 12:17:00,
2013-02-05 07:22:00,17.0,17.0,29.10,NNW,337,0.0,0.0,100,0.00,,---,0.00,0.00,VWS V14.01,2013-02-05 12:22:00,
2013-02-05 07:27:00,18.0,18.0,29.10,NNW,337,0.0,0.0,100,0.00,,---,0.00,0.00,VWS V14.01,2013-02-05 12:27:00,
2013-02-05 07:32:00,18.0,18.0,29.11,NNW,337,0.0,0.0,100,0.00,,---,0.00,0.00,VWS V14.01,2013-02-05 12:32:00,
2013-02-05 07:37:00,18.0,18.0,29.11,NNW,337,0.0,0.0,100,0.00,,---,0.00,0.00,VWS V14.01,2013-02-05 12:37:00,
2013-02-05 07:42:00,18.0,18.0,29.11,NNW,337,0.0,0.0,100,0.00,,---,0.00,0.00,VWS V14.01,2013-02-05 12:42:00,
2013-02-05 07:47:00,17.0,17.0,29.11,NNW,337,0.0,0.0,100,0.00,,---,0.00,0.00,VWS V14.01,2013-02-05 12:47:00,
2013-02-05 07:52:00,18.0,18.0,29.11,NNW,337,0.0,0.0,100,0.00,,---,0.00,0.00,VWS V14.01,2013-02-05 12:52:00,
2013-02-05 07:57:00,18.0,18.0,29.11,NNW,337,0.0,0.0,100,0.00,,---,0.00,0.00,VWS V14.01,2013-02-05 12:57:00,
2013-02-05 08:02:00,18.0,18.0,29.11,NNW,337,0.0,0.0,100,0.00,,---,0.00,0.00,VWS V14.01,2013-02-05 13:02:00,
2013-02-05 08:07:00,18.0,18.0,29.11,NNW,337,0.0,0.0,100,0.00,,---,0.00,0.00,VWS V14.01,2013-02-05 13:07:00,
2013-02-05 08:12:00,18.0,18.0,29.11,NNW,337,0.0,0.0,100,0.00,,---,0.00,0.00,VWS V14.01,2013-02-05 13:12:00,
2013-02-05 08:17:00,19.0,19.0,29.11,NNW,337,0.0,0.0,100,0.00,,---,0.00,0.00,VWS V14.01,2013-02-05 13:17:00,
2013-02-05 08:22:00,19.0,19.0,29.12,NNW,337,0.0,0.0,100,0.00,,---,0.00,0.00,VWS V14.01,2013-02-05 13:22:00,
2013-02-05 08:27:00,19.0,19.0,29.12,NNW,337,0.0,0.0,100,0.00,,---,0.00,0.00,VWS V14.01,2013-02-05 13:27:00,
2013-02-05 08:32:00,19.0,19.0,29.12,NNW,337,0.0,0.0,100,0.00,,---,0.00,0.00,VWS V14.01,2013-02-05 13:32:00,
2013-02-05 08:37:00,19.0,19.0,29.12,NNW,337,0.0,0.0,100,0.00,,---,0.00,0.00,VWS V14.01,2013-02-05 13:37:00,
2013-02-05 08:42:00,20.0,20.0,29.11,NNW,337,0.0,0.0,100,0.00,,---,0.00,0.00,VWS V14.01,2013-02-05 13:42:00,
2013-02-05 08:47:00,20.0,20.0,29.11,NNW,337,0.0,0.0,100,0.00,,---,0.00,0.00,VWS V14.01,2013-02-05 13:47:00,
2013-02-05 08:52:00,20.0,20.0,29.12,NNW,337,0.0,0.0,100,0.00,,---,0.00,0.00,VWS V14.01,2013-02-05 13:52:00,
2013-02-05 08:57:00,21.0,21.0,29.12,NNW,337,0.0,0.0,100,0.00,,---,0.00,0.00,VWS V14.01,2013-02-05 13:57:00,
2013-02-05 09:02:00,21.0,21.0,29.11,NNW,337,0.0,0.0,100,0.00,,---,0.00,0.00,VWS V14.01,2013-02-05 14:02:00,
2013-02-05 09:07:00,21.0,21.0,29.11,NNW,337,0.0,0.0,100,0.00,,---,0.00,0.00,VWS V14.01,2013-02-05 14:07:00,
2013-02-05 09:12:00,22.0,22.0,29.11,SE,135,0.0,0.0,100,0.00,,---,0.00,0.00,VWS V14.01,2013-02-05 14:12:00,
2013-02-05 09:17:00,22.0,22.0,29.11,SE,135,0.0,0.0,100,0.00,,---,0.00,0.00,VWS V14.01,2013-02-05 14:17:00,
2013-02-05 09:22:00,22.0,22.0,29.12,South,180,0.0,0.0,100,0.00,,---,0.00,0.00,VWS V14.01,2013-02-05 14:22:00,
2013-02-05 09:27:00,22.0,22.0,29.12,South,180,0.0,0.0,100,0.00,,---,0.00,0.00,VWS V14.01,2013-02-05 14:27:00,
2013-02-05 09:32:00,23.0,23.0,29.11,South,180,0.0,0.0,100,0.00,,---,0.00,0.00,VWS V14.01,2013-02-05 14:32:00,
2013-02-05 09:37:00,23.0,23.0,29.11,South,180,0.0,0.0,100,0.00,,---,0.00,0.00,VWS V14.01,2013-02-05 14:37:00,
2013-02-05 09:42:00,23.0,23.0,29.12,South,180,0.0,0.0,100,0.00,,---,0.00,0.00,VWS V14.01,2013-02-05 14:42:00,
2013-02-05 09:47:00,23.0,23.0,29.12,South,180,0.0,0.0,100,0.00,,---,0.00,0.00,VWS V14.01,2013-02-05 14:47:00,
2013-02-05 09:52:00,23.0,23.0,29.13,South,180,0.0,0.0,100,0.00,,---,0.00,0.00,VWS V14.01,2013-02-05 14:52:00,
2013-02-05 09:57:00,23.0,23.0,29.13,SE,135,0.0,0.0,100,0.00,,---,0.00,0.00,VWS V14.01,2013-02-05 14:57:00,
2013-02-05 10:02:00,23.0,23.0,29.13,SW,225,0.0,1.0,100,0.00,,---,0.00,0.00,VWS V14.01,2013-02-05 15:02:00,
2013-02-05 10:07:00,24.0,24.0,29.13,SSW,202,0.0,1.0,100,0.00,,---,0.00,0.00,VWS V14.01,2013-02-05 15:07:00,
2013-02-05 10:12:00,24.0,24.0,29.13,South,180,0.0,2.0,100,0.00,,---,0.00,0.00,VWS V14.01,2013-02-05 15:12:00,
2013-02-05 10:17:00,24.0,24.0,29.13,SSE,157,0.0,1.0,100,0.00,,---,0.00,0.00,VWS V14.01,2013-02-05 15:17:00,
2013-02-05 10:22:00,24.0,24.0,29.12,SW,225,0.0,0.0,100,0.00,,---,0.00,0.00,VWS V14.01,2013-02-05 15:22:00,
2013-02-05 10:27:00,24.0,24.0,29.12,SW,225,0.0,0.0,100,0.00,,---,0.00,0.00,VWS V14.01,2013-02-05 15:27:00,
2013-02-05 10:32:00,24.0,24.0,29.13,SE,135,0.0,0.0,100,0.00,,---,0.00,0.00,VWS V14.01,2013-02-05 15:32:00,
2013-02-05 10:37:00,24.0,24.0,29.13,South,180,0.0,0.0,100,0.00,,---,0.00,0.00,VWS V14.01,2013-02-05 15:37:00,
2013-02-05 10:42:00,25.0,25.0,29.12,South,180,1.0,1.0,100,0.00,,---,0.00,0.00,VWS V14.01,2013-02-05 15:42:00,
2013-02-05 10:47:00,25.0,25.0,29.12,South,180,0.0,0.0,100,0.00,,---,0.00,0.00,VWS V14.01,2013-02-05 15:47:00,
2013-02-05 10:52:00,25.0,25.0,29.12,SE,135,1.0,1.0,100,0.00,,---,0.00,0.00,VWS V14.01,2013-02-05 15:52:00,
2013-02-05 10:57:00,25.0,25.0,29.12,SE,135,0.0,3.0,100,0.00,,---,0.00,0.00,VWS V14.01,2013-02-05 15:57:00,
2013-02-05 11:02:00,26.0,26.0,29.11,WSW,247,2.0,2.0,100,0.00,,---,0.00,0.00,VWS V14.01,2013-02-05 16:02:00,
2013-02-05 11:07:00,26.0,26.0,29.11,SE,135,4.0,5.0,100,0.00,,---,0.00,0.00,VWS V14.01,2013-02-05 16:07:00,
2013-02-05 11:12:00,26.0,25.8,29.09,SSW,202,5.0,5.0,99,0.00,,---,0.00,0.00,VWS V14.01,2013-02-05 16:12:00,
2013-02-05 11:17:00,26.0,25.8,29.09,SSE,157,3.0,5.0,99,0.00,,---,0.00,0.00,VWS V14.01,2013-02-05 16:17:00,
2013-02-05 11:22:00,27.0,26.3,29.08,SSW,202,3.0,4.0,97,0.00,,---,0.00,0.00,VWS V14.01,2013-02-05 16:22:00,
2013-02-05 11:27:00,27.0,26.5,29.08,SSW,202,3.0,4.0,98,0.00,,---,0.00,0.00,VWS V14.01,2013-02-05 16:27:00,
2013-02-05 11:32:00,27.0,26.3,29.08,South,180,3.0,3.0,97,0.00,,---,0.00,0.00,VWS V14.01,2013-02-05 16:32:00,
2013-02-05 11:37:00,27.0,25.8,29.08,WSW,247,1.0,4.0,95,0.00,,---,0.00,0.00,VWS V14.01,2013-02-05 16:37:00,
2013-02-05 11:42:00,27.0,25.2,29.08,SSW,202,0.0,4.0,93,0.00,,---,0.00,0.00,VWS V14.01,2013-02-05 16:42:00,
2013-02-05 11:47:00,27.0,25.2,29.08,SE,135,3.0,6.0,93,0.00,,---,0.00,0.00,VWS V14.01,2013-02-05 16:47:00,
2013-02-05 11:52:00,28.0,26.5,29.06,SE,135,2.0,2.0,94,0.00,,---,0.00,0.00,VWS V14.01,2013-02-05 16:52:00,
2013-02-05 11:57:00,28.0,26.5,29.06,ESE,112,4.0,6.0,94,0.00,,---,0.00,0.00,VWS V14.01,2013-02-05 16:57:00,
2013-02-05 12:02:00,28.0,26.2,29.06,SSW,202,5.0,7.0,93,0.00,,---,0.00,0.00,VWS V14.01,2013-02-05 17:02:00,
2013-02-05 12:07:00,28.0,26.2,29.06,SSE,157,0.0,5.0,93,0.00,,---,0.00,0.00,VWS V14.01,2013-02-05 17:07:00,
2013-02-05 12:12:00,28.0,26.0,29.05,SSE,157,2.0,6.0,92,0.00,,---,0.00,0.00,VWS V14.01,2013-02-05 17:12:00,
2013-02-05 12:17:00,28.0,26.0,29.05,SW,225,3.0,3.0,92,0.00,,---,0.00,0.00,VWS V14.01,2013-02-05 17:17:00,
2013-02-05 12:22:00,28.0,25.7,29.05,SE,135,3.0,6.0,91,0.00,,---,0.00,0.00,VWS V14.01,2013-02-05 17:22:00,
2013-02-05 12:27:00,29.0,27.0,29.05,SSE,157,1.0,3.0,92,0.00,,---,0.00,0.00,VWS V14.01,2013-02-05 17:27:00,
2013-02-05 12:32:00,29.0,27.0,29.05,SSE,157,3.0,5.0,92,0.00,,---,0.00,0.00,VWS V14.01,2013-02-05 17:32:00,
2013-02-05 12:37:00,29.0,26.4,29.05,SSW,202,0.0,4.0,90,0.00,,---,0.00,0.00,VWS V14.01,2013-02-05 17:37:00,
2013-02-05 12:42:00,29.0,26.4,29.04,South,180,2.0,5.0,90,0.00,,---,0.00,0.00,VWS V14.01,2013-02-05 17:42:00,
2013-02-05 12:47:00,29.0,26.2,29.04,South,180,0.0,5.0,89,0.00,,---,0.00,0.00,VWS V14.01,2013-02-05 17:47:00,
2013-02-05 12:52:00,29.0,26.7,29.03,SSW,202,2.0,4.0,91,0.00,,---,0.00,0.00,VWS V14.01,2013-02-05 17:52:00,
2013-02-05 12:57:00,29.0,26.4,29.03,SSE,157,1.0,4.0,90,0.00,,---,0.00,0.00,VWS V14.01,2013-02-05 17:57:00,
2013-02-05 13:02:00,29.0,26.4,29.03,SSE,157,2.0,8.0,90,0.00,,---,0.00,0.00,VWS V14.01,2013-02-05 18:02:00,
2013-02-05 13:07:00,30.0,27.4,29.03,SW,225,0.0,2.0,90,0.00,,---,0.00,0.00,VWS V14.01,2013-02-05 18:07:00,
2013-02-05 13:12:00,30.0,26.9,29.03,SW,225,1.0,5.0,88,0.00,,---,0.00,0.00,VWS V14.01,2013-02-05 18:12:00,
2013-02-05 13:17:00,30.0,26.9,29.03,SSW,202,1.0,3.0,88,0.00,,---,0.00,0.00,VWS V14.01,2013-02-05 18:17:00,
2013-02-05 13:22:00,30.0,26.9,29.02,SSE,157,4.0,7.0,88,0.00,,---,0.00,0.00,VWS V14.01,2013-02-05 18:22:00,
2013-02-05 13:27:00,30.0,27.2,29.02,South,180,3.0,3.0,89,0.00,,---,0.00,0.00,VWS V14.01,2013-02-05 18:27:00,
2013-02-05 13:32:00,30.0,26.9,29.03,SSE,157,5.0,6.0,88,0.00,,---,0.00,0.00,VWS V14.01,2013-02-05 18:32:00,
2013-02-05 13:37:00,30.0,26.9,29.03,South,180,1.0,5.0,88,0.00,,---,0.00,0.00,VWS V14.01,2013-02-05 18:37:00,
2013-02-05 13:42:00,31.0,27.9,29.01,South,180,2.0,3.0,88,0.00,,---,0.00,0.00,VWS V14.01,2013-02-05 18:42:00,
2013-02-05 13:47:00,31.0,27.9,29.01,South,180,2.0,5.0,88,0.00,,---,0.00,0.00,VWS V14.01,2013-02-05 18:47:00,
2013-02-05 13:52:00,31.0,27.9,29.01,SW,225,4.0,7.0,88,0.00,,---,0.00,0.00,VWS V14.01,2013-02-05 18:52:00,
2013-02-05 13:57:00,31.0,27.6,29.01,South,180,1.0,5.0,87,0.00,,---,0.00,0.00,VWS V14.01,2013-02-05 18:57:00,
2013-02-05 14:02:00,31.0,27.6,29.01,WSW,247,2.0,6.0,87,0.00,,---,0.00,0.00,VWS V14.01,2013-02-05 19:02:00,
2013-02-05 14:07:00,31.0,28.1,29.01,South,180,1.0,5.0,89,0.00,,---,0.00,0.00,VWS V14.01,2013-02-05 19:07:00,
2013-02-05 14:12:00,32.0,29.4,28.99,SSW,202,0.0,3.0,90,0.00,,---,0.00,0.00,VWS V14.01,2013-02-05 19:12:00,
2013-02-05 14:17:00,32.0,28.0,28.99,SSE,157,6.0,8.0,85,0.00,,---,0.00,0.00,VWS V14.01,2013-02-05 19:17:00,
2013-02-05 14:22:00,32.0,28.0,28.98,South,180,4.0,5.0,85,0.00,,---,0.00,0.00,VWS V14.01,2013-02-05 19:22:00,
2013-02-05 14:27:00,32.0,28.0,28.98,SSW,202,4.0,4.0,85,0.00,,---,0.00,0.00,VWS V14.01,2013-02-05 19:27:00,
2013-02-05 14:32:00,32.0,28.3,28.97,SSW,202,4.0,5.0,86,0.00,,---,0.00,0.00,VWS V14.01,2013-02-05 19:32:00,
2013-02-05 14:37:00,32.0,28.0,28.97,SSW,202,4.0,7.0,85,0.00,,---,0.00,0.00,VWS V14.01,2013-02-05 19:37:00,
2013-02-05 14:42:00,32.0,28.9,28.97,SSE,157,4.0,6.0,88,0.00,,---,0.00,0.00,VWS V14.01,2013-02-05 19:42:00,
2013-02-05 14:47:00,32.0,28.9,28.97,SSE,157,6.0,6.0,88,0.00,,---,0.00,0.00,VWS V14.01,2013-02-05 19:47:00,
2013-02-05 14:52:00,33.0,30.1,28.96,South,180,2.0,2.0,89,0.00,,---,0.00,0.00,VWS V14.01,2013-02-05 19:52:00,
2013-02-05 14:57:00,33.0,29.6,28.96,South,180,7.0,7.0,87,0.00,,---,0.00,0.00,VWS V14.01,2013-02-05 19:57:00,
2013-02-05 15:02:00,32.0,28.9,28.95,SW,225,4.0,8.0,88,0.00,,---,0.00,0.00,VWS V14.01,2013-02-05 20:02:00,
2013-02-05 15:07:00,33.0,29.8,28.95,SW,225,7.0,7.0,88,0.00,,---,0.00,0.00,VWS V14.01,2013-02-05 20:07:00,
2013-02-05 15:12:00,33.0,29.3,28.95,South,180,4.0,5.0,86,0.00,,---,0.00,0.00,VWS V14.01,2013-02-05 20:12:00,
2013-02-05 15:17:00,33.0,29.3,28.95,SSW,202,2.0,6.0,86,0.00,,---,0.00,0.00,VWS V14.01,2013-02-05 20:17:00,
2013-02-05 15:22:00,33.0,29.6,28.96,SSW,202,4.0,4.0,87,0.00,,---,0.00,0.00,VWS V14.01,2013-02-05 20:22:00,
2013-02-05 15:27:00,33.0,29.6,28.96,SSW,202,2.0,5.0,87,0.00,,---,0.00,0.00,VWS V14.01,2013-02-05 20:27:00,
2013-02-05 15:32:00,33.0,29.6,28.97,SW,225,2.0,9.0,87,0.00,,---,0.00,0.00,VWS V14.01,2013-02-05 20:32:00,
2013-02-05 15:38:00,33.0,29.8,28.97,SSW,202,1.0,5.0,88,0.00,,---,0.00,0.00,VWS V14.01,2013-02-05 20:38:00,
2013-02-05 15:43:00,33.0,29.8,28.97,South,180,1.0,2.0,88,0.00,,---,0.00,0.00,VWS V14.01,2013-02-05 20:43:00,
2013-02-05 15:48:00,33.0,29.8,28.97,South,180,0.0,6.0,88,0.00,,---,0.00,0.00,VWS V14.01,2013-02-05 20:48:00,
2013-02-05 15:53:00,34.0,31.1,28.97,SSW,202,5.0,6.0,89,0.00,,---,0.00,0.00,VWS V14.01,2013-02-05 20:53:00,
2013-02-05 15:58:00,34.0,31.4,28.97,SSW,202,1.0,3.0,90,0.00,,---,0.00,0.00,VWS V14.01,2013-02-05 20:58:00,
2013-02-05 16:03:00,34.0,31.1,28.98,West,270,0.0,4.0,89,0.00,,---,0.00,0.00,VWS V14.01,2013-02-05 21:03:00,
2013-02-05 16:08:00,34.0,31.1,28.98,SSW,202,4.0,4.0,89,0.00,,---,0.00,0.00,VWS V14.01,2013-02-05 21:08:00,
2013-02-05 16:13:00,34.0,31.1,28.98,SSW,202,4.0,6.0,89,0.00,,---,0.00,0.00,VWS V14.01,2013-02-05 21:13:00,
2013-02-05 16:18:00,34.0,31.4,28.98,SSW,202,0.0,4.0,90,0.00,,---,0.00,0.00,VWS V14.01,2013-02-05 21:18:00,
2013-02-05 16:23:00,34.0,30.8,28.99,NW,315,1.0,6.0,88,0.00,,---,0.00,0.00,VWS V14.01,2013-02-05 21:23:00,
2013-02-05 16:28:00,34.0,31.1,28.99,SW,225,2.0,4.0,89,0.00,,---,0.00,0.00,VWS V14.01,2013-02-05 21:28:00,
2013-02-05 16:33:00,34.0,31.1,28.98,WNW,292,1.0,5.0,89,0.00,,---,0.00,0.00,VWS V14.01,2013-02-05 21:33:00,
2013-02-05 16:38:00,34.0,31.4,28.98,SSE,157,0.0,1.0,90,0.00,,---,0.00,0.00,VWS V14.01,2013-02-05 21:38:00,
2013-02-05 16:43:00,34.0,31.6,28.99,SSW,202,1.0,3.0,91,0.00,,---,0.00,0.00,VWS V14.01,2013-02-05 21:43:00,
2013-02-05 16:48:00,34.0,31.6,28.99,WNW,292,0.0,1.0,91,0.00,,---,0.00,0.00,VWS V14.01,2013-02-05 21:48:00,
2013-02-05 16:53:00,34.0,31.6,29.00,West,270,0.0,2.0,91,0.00,,---,0.00,0.00,VWS V14.01,2013-02-05 21:53:00,
2013-02-05 16:58:00,33.0,30.9,29.00,West,270,0.0,3.0,92,0.00,,---,0.00,0.00,VWS V14.01,2013-02-05 21:58:00,
2013-02-05 17:03:00,33.0,30.9,29.02,WSW,247,0.0,1.0,92,0.00,,---,0.00,0.00,VWS V14.01,2013-02-05 22:03:00,
2013-02-05 17:08:00,33.0,30.9,29.02,NW,315,0.0,0.0,92,0.00,,---,0.00,0.00,VWS V14.01,2013-02-05 22:08:00,
2013-02-05 17:13:00,33.0,31.2,29.03,WNW,292,0.0,0.0,93,0.00,,---,0.00,0.00,VWS V14.01,2013-02-05 22:13:00,
2013-02-05 17:18:00,33.0,31.5,29.03,West,270,0.0,0.0,94,0.00,,---,0.00,0.00,VWS V14.01,2013-02-05 22:18:00,
2013-02-05 17:23:00,33.0,31.5,29.04,SSW,202,0.0,0.0,94,0.00,,---,0.00,0.00,VWS V14.01,2013-02-05 22:23:00,
2013-02-05 17:28:00,33.0,31.5,29.04,WSW,247,0.0,0.0,94,0.00,,---,0.00,0.00,VWS V14.01,2013-02-05 22:28:00,
2013-02-05 17:33:00,33.0,31.5,29.04,SSW,202,0.0,1.0,94,0.00,,---,0.00,0.00,VWS V14.01,2013-02-05 22:33:00,
2013-02-05 17:38:00,33.0,31.7,29.04,NW,315,1.0,2.0,95,0.00,,---,0.00,0.00,VWS V14.01,2013-02-05 22:38:00,
2013-02-05 17:43:00,33.0,32.0,29.05,WNW,292,0.0,0.0,96,0.00,,---,0.00,0.00,VWS V14.01,2013-02-05 22:43:00,
2013-02-05 17:48:00,33.0,32.0,29.05,NW,315,0.0,1.0,96,0.00,,---,0.00,0.00,VWS V14.01,2013-02-05 22:48:00,
2013-02-05 17:53:00,33.0,32.0,29.06,WNW,292,0.0,1.0,96,0.00,,---,0.00,0.00,VWS V14.01,2013-02-05 22:53:00,
2013-02-05 17:58:00,33.0,32.2,29.06,WNW,292,1.0,4.0,97,0.00,,---,0.00,0.00,VWS V14.01,2013-02-05 22:58:00,
2013-02-05 18:03:00,33.0,32.2,29.06,WNW,292,0.0,0.0,97,0.00,,---,0.00,0.00,VWS V14.01,2013-02-05 23:03:00,
2013-02-05 18:08:00,33.0,32.2,29.06,WNW,292,0.0,4.0,97,0.00,,---,0.00,0.00,VWS V14.01,2013-02-05 23:08:00,
2013-02-05 18:13:00,33.0,32.2,29.06,WNW,292,0.0,0.0,97,0.00,,---,0.00,0.00,VWS V14.01,2013-02-05 23:13:00,
2013-02-05 18:18:00,33.0,32.5,29.06,WSW,247,0.0,0.0,98,0.00,,---,0.00,0.00,VWS V14.01,2013-02-05 23:18:00,
2013-02-05 18:23:00,33.0,32.8,29.06,West,270,0.0,1.0,99,0.00,,---,0.00,0.00,VWS V14.01,2013-02-05 23:23:00,
2013-02-05 18:28:00,33.0,32.8,29.06,WNW,292,0.0,0.0,99,0.00,,---,0.00,0.00,VWS V14.01,2013-02-05 23:28:00,
2013-02-05 18:33:00,33.0,32.8,29.07,SSW,202,0.0,1.0,99,0.00,,---,0.00,0.00,VWS V14.01,2013-02-05 23:33:00,
2013-02-05 18:38:00,33.0,32.8,29.07,WSW,247,0.0,0.0,99,0.00,,---,0.00,0.00,VWS V14.01,2013-02-05 23:38:00,
2013-02-05 18:43:00,33.0,33.0,29.07,West,270,0.0,0.0,100,0.00,,---,0.00,0.00,VWS V14.01,2013-02-05 23:43:00,
2013-02-05 18:48:00,33.0,33.0,29.07,SSW,202,0.0,0.0,100,0.00,,---,0.00,0.00,VWS V14.01,2013-02-05 23:48:00,
2013-02-05 18:53:00,33.0,33.0,29.08,WNW,292,0.0,0.0,100,0.00,,---,0.00,0.00,VWS V14.01,2013-02-05 23:53:00,
2013-02-05 18:58:00,33.0,33.0,29.08,WNW,292,0.0,0.0,100,0.00,,---,0.00,0.00,VWS V14.01,2013-02-05 23:58:00,
2013-02-05 19:03:00,33.0,33.0,29.08,WSW,247,0.0,2.0,100,0.00,,---,0.00,0.00,VWS V14.01,2013-02-06 00:03:00,
2013-02-05 19:08:00,33.0,33.0,29.08,South,180,0.0,2.0,100,0.00,,---,0.00,0.00,VWS V14.01,2013-02-06 00:08:00,
2013-02-05 19:13:00,33.0,33.0,29.09,WNW,292,0.0,0.0,100,0.00,,---,0.00,0.00,VWS V14.01,2013-02-06 00:13:00,
2013-02-05 19:18:00,33.0,33.0,29.09,NNW,337,0.0,0.0,100,0.00,,---,0.00,0.00,VWS V14.01,2013-02-06 00:18:00,
2013-02-05 19:23:00,33.0,33.0,29.09,WNW,292,0.0,1.0,100,0.00,,---,0.00,0.00,VWS V14.01,2013-02-06 00:23:00,
2013-02-05 19:28:00,33.0,33.0,29.09,SSW,202,1.0,2.0,100,0.00,,---,0.00,0.00,VWS V14.01,2013-02-06 00:28:00,
2013-02-05 19:33:00,34.0,34.0,29.09,WSW,247,0.0,0.0,100,0.00,,---,0.00,0.00,VWS V14.01,2013-02-06 00:33:00,
2013-02-05 19:38:00,34.0,34.0,29.09,NNW,337,0.0,1.0,100,0.00,,---,0.00,0.00,VWS V14.01,2013-02-06 00:38:00,
2013-02-05 19:43:00,34.0,34.0,29.10,WNW,292,0.0,1.0,100,0.00,,---,0.00,0.00,VWS V14.01,2013-02-06 00:43:00,
2013-02-05 19:48:00,34.0,34.0,29.10,WNW,292,0.0,0.0,100,0.00,,---,0.00,0.00,VWS V14.01,2013-02-06 00:48:00,
2013-02-05 19:53:00,34.0,34.0,29.11,WNW,292,0.0,1.0,100,0.00,,---,0.00,0.00,VWS V14.01,2013-02-06 00:53:00,
2013-02-05 19:58:00,34.0,34.0,29.11,SW,225,0.0,0.0,100,0.00,,---,0.00,0.00,VWS V14.01,2013-02-06 00:58:00,
2013-02-05 20:03:00,34.0,34.0,29.11,WNW,292,0.0,0.0,100,0.00,,---,0.00,0.00,VWS V14.01,2013-02-06 01:03:00,
2013-02-05 20:08:00,34.0,34.0,29.11,WNW,292,0.0,0.0,100,0.00,,---,0.00,0.00,VWS V14.01,2013-02-06 01:08:00,
2013-02-05 20:13:00,33.0,33.0,29.11,North,360,1.0,3.0,100,0.00,,---,0.00,0.00,VWS V14.01,2013-02-06 01:13:00,
2013-02-05 20:18:00,34.0,34.0,29.11,NW,315,1.0,2.0,100,0.00,,---,0.00,0.00,VWS V14.01,2013-02-06 01:18:00,
2013-02-05 20:23:00,34.0,34.0,29.12,South,180,0.0,0.0,100,0.00,,---,0.00,0.00,VWS V14.01,2013-02-06 01:23:00,
2013-02-05 20:28:00,34.0,34.0,29.12,North,360,0.0,0.0,100,0.00,,---,0.00,0.00,VWS V14.01,2013-02-06 01:28:00,
2013-02-05 20:33:00,33.0,33.0,29.12,NNW,337,0.0,4.0,100,0.00,,---,0.00,0.00,VWS V14.01,2013-02-06 01:33:00,
2013-02-05 20:38:00,34.0,34.0,29.12,SSW,202,1.0,3.0,100,0.00,,---,0.00,0.00,VWS V14.01,2013-02-06 01:38:00,
2013-02-05 20:43:00,34.0,34.0,29.13,West,270,0.0,2.0,100,0.00,,---,0.00,0.00,VWS V14.01,2013-02-06 01:43:00,
2013-02-05 20:48:00,34.0,34.0,29.13,WNW,292,0.0,3.0,100,0.00,,---,0.00,0.00,VWS V14.01,2013-02-06 01:48:00,
2013-02-05 20:53:00,34.0,34.0,29.13,WNW,292,0.0,2.0,100,0.00,,---,0.00,0.00,VWS V14.01,2013-02-06 01:53:00,
2013-02-05 20:58:00,33.0,33.0,29.13,WNW,292,0.0,1.0,100,0.00,,---,0.00,0.00,VWS V14.01,2013-02-06 01:58:00,
2013-02-05 21:03:00,33.0,33.0,29.14,NNW,337,0.0,2.0,100,0.00,,---,0.00,0.00,VWS V14.01,2013-02-06 02:03:00,
2013-02-05 21:08:00,33.0,33.0,29.14,SW,225,0.0,3.0,100,0.00,,---,0.00,0.00,VWS V14.01,2013-02-06 02:08:00,
2013-02-05 21:13:00,33.0,33.0,29.15,NNW,337,0.0,0.0,100,0.00,,---,0.00,0.00,VWS V14.01,2013-02-06 02:13:00,
2013-02-05 21:18:00,33.0,33.0,29.15,NW,315,0.0,3.0,100,0.00,,---,0.00,0.00,VWS V14.01,2013-02-06 02:18:00,
2013-02-05 21:23:00,33.0,33.0,29.15,WNW,292,0.0,0.0,100,0.00,,---,0.00,0.00,VWS V14.01,2013-02-06 02:23:00,
2013-02-05 21:28:00,33.0,33.0,29.15,WNW,292,0.0,3.0,100,0.00,,---,0.00,0.00,VWS V14.01,2013-02-06 02:28:00,
2013-02-05 21:33:00,33.0,33.0,29.15,West,270,1.0,1.0,100,0.00,,---,0.00,0.00,VWS V14.01,2013-02-06 02:33:00,
2013-02-05 21:38:00,33.0,33.0,29.15,WNW,292,0.0,1.0,100,0.00,,---,0.00,0.00,VWS V14.01,2013-02-06 02:38:00,
2013-02-05 21:43:00,33.0,33.0,29.15,NW,315,0.0,0.0,100,0.00,,---,0.00,0.00,VWS V14.01,2013-02-06 02:43:00,
2013-02-05 21:48:00,33.0,33.0,29.15,NW,315,0.0,0.0,100,0.00,,---,0.00,0.00,VWS V14.01,2013-02-06 02:48:00,
2013-02-05 21:53:00,33.0,33.0,29.17,WNW,292,2.0,3.0,100,0.00,,---,0.00,0.00,VWS V14.01,2013-02-06 02:53:00,
2013-02-05 21:58:00,33.0,33.0,29.17,WSW,247,0.0,4.0,100,0.00,,---,0.00,0.00,VWS V14.01,2013-02-06 02:58:00,
2013-02-05 22:03:00,33.0,33.0,29.17,WNW,292,0.0,1.0,100,0.00,,---,0.00,0.00,VWS V14.01,2013-02-06 03:03:00,
2013-02-05 22:08:00,33.0,33.0,29.17,WNW,292,0.0,0.0,100,0.00,,---,0.00,0.00,VWS V14.01,2013-02-06 03:08:00,
2013-02-05 22:13:00,33.0,33.0,29.17,North,360,1.0,2.0,100,0.00,,---,0.00,0.00,VWS V14.01,2013-02-06 03:13:00,
2013-02-05 22:18:00,33.0,33.0,29.17,NNW,337,0.0,1.0,100,0.00,,---,0.00,0.00,VWS V14.01,2013-02-06 03:18:00,
2013-02-05 22:23:00,33.0,33.0,29.18,NW,315,0.0,0.0,100,0.00,,---,0.00,0.00,VWS V14.01,2013-02-06 03:23:00,
2013-02-05 22:28:00,33.0,33.0,29.18,NW,315,0.0,1.0,100,0.00,,---,0.00,0.00,VWS V14.01,2013-02-06 03:28:00,
2013-02-05 22:33:00,33.0,33.0,29.18,WNW,292,0.0,0.0,100,0.00,,---,0.00,0.00,VWS V14.01,2013-02-06 03:33:00,
2013-02-05 22:38:00,33.0,33.0,29.18,NW,315,1.0,4.0,100,0.00,,---,0.00,0.00,VWS V14.01,2013-02-06 03:38:00,
2013-02-05 22:43:00,33.0,33.0,29.19,NW,315,2.0,2.0,100,0.00,,---,0.00,0.00,VWS V14.01,2013-02-06 03:43:00,
2013-02-05 22:48:00,32.0,32.0,29.19,WNW,292,0.0,2.0,100,0.00,,---,0.00,0.00,VWS V14.01,2013-02-06 03:48:00,
2013-02-05 22:53:00,32.0,32.0,29.20,NW,315,3.0,3.0,100,0.00,,---,0.00,0.00,VWS V14.01,2013-02-06 03:53:00,
2013-02-05 22:58:00,32.0,32.0,29.20,WNW,292,0.0,4.0,100,0.00,,---,0.00,0.00,VWS V14.01,2013-02-06 03:58:00,
2013-02-05 23:03:00,32.0,32.0,29.20,West,270,1.0,3.0,100,0.00,,---,0.00,0.00,VWS V14.01,2013-02-06 04:03:00,
2013-02-05 23:08:00,32.0,32.0,29.20,WNW,292,3.0,3.0,100,0.00,,---,0.00,0.00,VWS V14.01,2013-02-06 04:08:00,
2013-02-05 23:13:00,32.0,32.0,29.21,NNW,337,2.0,5.0,100,0.00,,---,0.00,0.00,VWS V14.01,2013-02-06 04:13:00,
2013-02-05 23:18:00,31.0,31.0,29.21,WNW,292,1.0,1.0,100,0.00,,---,0.00,0.00,VWS V14.01,2013-02-06 04:18:00,
2013-02-05 23:23:00,31.0,31.0,29.21,NNW,337,6.0,6.0,100,0.00,,---,0.00,0.00,VWS V14.01,2013-02-06 04:23:00,
2013-02-05 23:28:00,31.0,31.0,29.21,NW,315,0.0,5.0,100,0.00,,---,0.00,0.00,VWS V14.01,2013-02-06 04:28:00,
2013-02-05 23:33:00,31.0,31.0,29.21,NNW,337,0.0,0.0,100,0.00,,---,0.00,0.00,VWS V14.01,2013-02-06 04:33:00,
2013-02-05 23:38:00,31.0,31.0,29.21,WNW,292,0.0,0.0,100,0.00,,---,0.00,0.00,VWS V14.01,2013-02-06 04:38:00,
2013-02-05 23:43:00,31.0,31.0,29.19,WNW,292,4.0,4.0,100,0.00,,---,0.00,0.00,VWS V14.01,2013-02-06 04:43:00,
2013-02-05 23:48:00,31.0,31.0,29.19,WNW,292,0.0,4.0,100,0.00,,---,0.00,0.00,VWS V14.01,2013-02-06 04:48:00,
2013-02-05 23:53:00,31.0,31.0,29.19,NW,315,4.0,5.0,100,0.00,,---,0.00,0.00,VWS V14.01,2013-02-06 04:53:00,
2013-02-05 23:58:00,31.0,31.0,29.19,West,270,0.0,4.0,100,0.00,,---,0.00,0.00,VWS V14.01,2013-02-06 04:58:00,